Find Starlink 33866

NORAD ID: 63653 Int'l Des: 2025-083 Owner: SPXS Country: US Constellation: starlink operational
LEOCIRCULAR

Live Position

Loading 3D Globe...

About Starlink 33866

Description loading...

Upcoming Passes

Passes for default location (London). Set your location on the main map for personalized predictions.

Altitude History

Loading altitude history...

Two-Line Element Set

1 63653U 25083V 26104.18944453 .00005632 00000-0 21407-3 0 9995
2 63653 42.9988 164.9298 0001644 271.8121 88.2542 15.27576090 55529
Epoch: Apr 14, 2026 • Age: 4 hours

Current Status

Altitude 494.5 km
Velocity 7.62 km/s
Sub-Earth Point -41.29°S, 117.95°E
Launch Date Apr 25, 2025
Age 0.9 years
Type internet

Technical Details

Classification Payload
Mass 575.00 kg
Dry Mass 530.00 kg
Total Mass 575.00 kg
Length 0.30 m
Diameter 4.10 m
Span 29.00 m
Shape Box + pan
Manufacturer SPXS
Bus Type Starlink V2MO
Phase Status In Orbit
Owner/State SPXS/US

Most Searched